MM3NTX-13 Weather Reports


Display with metric or nautical units.
time (UTC)temp
F
wind
direction
speed
MPH
gust
MPH
rain 1hr
in
rain 24hr
in
rain mn
in
humidity
%
barometer
mb
20260507221218 50 49 4.0 9.0 0.00 0.00 0.00 76 1011.6
20260507220318 50 236 3.0 6.0 0.00 0.00 0.00 77 1011.5
20260507215418 49 55 4.0 6.0 0.00 0.00 0.00 76 1011.6
20260507214519 49 337 2.0 4.0 0.00 0.00 0.00 79 1011.8
20260507213618 49 206 3.0 8.0 0.00 0.00 0.00 79 1011.7
20260507211818 49 244 4.0 9.0 0.00 0.00 0.00 79 1011.7
20260507210019 49 202 3.0 6.0 0.00 0.00 0.00 78 1011.8
20260507204218 49 171 2.0 4.0 0.00 0.00 0.00 77 1012.0
20260507203318 49 68 2.0 4.0 0.00 0.00 0.00 78 1011.8
20260507202418 50 149 2.0 4.0 0.00 0.00 0.00 77 1011.9
20260507195718 50 194 3.0 6.0 0.00 0.00 0.00 76 1012.1
20260507194818 51 184 3.0 4.0 0.00 0.00 0.00 75 1011.8
20260507193918 51 168 2.0 4.0 0.00 0.00 0.00 75 1011.8
20260507191218 51 175 3.0 7.0 0.00 0.00 0.00 74 1011.8
20260507190318 51 195 5.0 7.0 0.00 0.00 0.00 73 1011.6
20260507184519 52 198 3.0 4.0 0.00 0.00 0.00 73 1011.7
20260507183618 52 183 1.0 6.0 0.00 0.00 0.00 73 1011.6
20260507180919 53 207 4.0 8.0 0.00 0.00 0.00 71 1011.4
20260507180019 53 186 3.0 6.0 0.00 0.00 0.00 70 1011.1
20260507175118 53 205 3.0 4.0 0.00 0.00 0.00 69 1011.0
20260507173318 53 194 6.0 13.0 0.00 0.00 0.00 67 1011.0
20260507171519 54 198 4.0 8.0 0.00 0.00 0.00 66 1011.3
20260507170619 54 177 7.0 13.0 0.00 0.00 0.00 66 1011.3
20260507165719 54 192 6.0 11.0 0.00 0.00 0.00 65 1011.2
20260507164819 54 198 5.0 8.0 0.00 0.00 0.00 64 1011.3
20260507163918 54 193 6.0 9.0 0.00 0.00 0.00 66 1011.3
20260507163019 54 202 6.0 9.0 0.00 0.00 0.00 64 1011.4
20260507162119 55 182 5.0 8.0 0.00 0.00 0.00 64 1011.3
20260507161219 55 192 4.0 8.0 0.00 0.00 0.00 62 1011.4
20260507160318 55 182 4.0 8.0 0.00 0.00 0.00 63 1011.3
20260507155419 54 188 6.0 9.0 0.00 0.00 0.00 62 1011.3
20260507154519 54 203 5.0 9.0 0.00 0.00 0.00 62 1011.5
20260507153618 54 216 5.0 11.0 0.00 0.00 0.00 60 1011.3
20260507152718 54 204 7.0 13.0 0.00 0.00 0.00 58 1011.5
20260507151819 55 188 6.0 13.0 0.00 0.00 0.00 57 1011.4
20260507150919 55 203 5.0 11.0 0.00 0.00 0.00 59 1011.4
20260507150019 54 185 9.0 11.0 0.00 0.00 0.00 61 1011.4
20260507145119 55 200 7.0 11.0 0.00 0.00 0.00 62 1011.5
20260507144218 55 217 5.0 11.0 0.00 0.00 0.00 59 1011.4
20260507143319 55 196 6.0 14.0 0.00 0.00 0.00 61 1011.5
20260507140618 55 223 4.0 11.0 0.00 0.00 0.00 61 1011.8
20260507135718 55 242 3.0 6.0 0.00 0.00 0.00 62 1011.9
20260507134819 54 236 3.0 7.0 0.00 0.00 0.00 63 1011.9
20260507133918 53 252 3.0 6.0 0.00 0.00 0.00 66 1011.8
20260507131219 53 200 2.0 6.0 0.00 0.00 0.00 66 1012.0
20260507125419 53 191 3.0 9.0 0.00 0.00 0.00 65 1012.3
20260507124519 53 181 7.0 11.0 0.00 0.00 0.00 63 1012.4
20260507122718 55 197 5.0 8.0 0.00 0.00 0.00 61 1012.2
20260507121818 55 188 3.0 7.0 0.00 0.00 0.00 63 1012.2
20260507120919 54 167 3.0 4.0 0.00 0.00 0.00 64 1012.4
20260507120019 54 147 2.0 4.0 0.00 0.00 0.00 65 1012.3
20260507114219 52 181 3.0 6.0 0.00 0.00 0.00 67 1012.6
20260507113319 52 155 2.0 4.0 0.00 0.00 0.00 69 1012.4
20260507112419 51 166 3.0 7.0 0.00 0.00 0.00 69 1012.6
20260507111520 50 174 4.0 7.0 0.00 0.00 0.00 69 1012.7
20260507110619 50 186 3.0 6.0 0.00 0.00 0.00 71 1012.7
20260507105719 50 191 2.0 2.0 0.00 0.00 0.00 70 1012.7
20260507103919 49 156 3.0 6.0 0.00 0.00 0.00 70 1012.9
20260507103019 49 22 2.0 4.0 0.00 0.00 0.00 70 1012.6
20260507102119 50 37 2.0 6.0 0.00 0.00 0.00 70 1012.7
20260507101219 50 172 3.0 6.0 0.00 0.00 0.00 71 1012.5
20260507100319 50 169 2.0 4.0 0.00 0.00 0.00 69 1012.5
20260507095419 51 174 2.0 4.0 0.00 0.00 0.00 68 1012.6
20260507094519 51 179 3.0 4.0 0.00 0.00 0.00 67 1012.6
20260507093619 51 166 3.0 6.0 0.00 0.00 0.00 67 1012.3
20260507092719 53 167 2.0 4.0 0.00 0.00 0.00 67 1012.5
20260507091819 52 159 5.0 9.0 0.00 0.00 0.00 67 1012.3
20260507090919 53 158 3.0 4.0 0.00 0.00 0.00 68 1012.2
20260507090019 53 140 2.0 4.0 0.00 0.00 0.00 67 1011.9
20260507085119 53 129 2.0 4.0 0.00 0.00 0.00 67 1012.3
20260507084219 53 134 2.0 4.0 0.00 0.00 0.00 67 1012.2
20260507082419 54 22 2.0 4.0 0.00 0.00 0.00 64 1012.3
20260507081519 53 156 3.0 4.0 0.00 0.00 0.00 67 1012.2
20260507080619 53 253 2.0 4.0 0.00 0.00 0.00 68 1012.4
20260507075719 51 176 2.0 2.0 0.00 0.00 0.00 67 1012.5
20260507073919 51 192 2.0 2.0 0.00 0.00 0.00 69 1012.5
20260507073019 50 163 3.0 4.0 0.00 0.00 0.00 70 1012.5
20260507072119 49 175 4.0 4.0 0.00 0.00 0.00 72 1012.4
20260507071219 48 165 3.0 6.0 0.00 0.00 0.00 73 1012.2
20260507065419 46 192 4.0 9.0 0.00 0.00 0.00 77 1012.3
20260507064519 45 163 3.0 6.0 0.00 0.00 0.00 77 1012.4
20260507063620 44 181 4.0 6.0 0.00 0.00 0.00 79 1012.4
20260507062719 44 158 3.0 6.0 0.00 0.00 0.00 78 1012.5
20260507061819 44 163 3.0 4.0 0.00 0.00 0.00 79 1012.5
20260507060919 43 150 2.0 4.0 0.00 0.00 0.00 80 1012.5
20260507060019 42 152 3.0 4.0 0.00 0.00 0.00 80 1012.6
20260507055119 41 176 5.0 7.0 0.00 0.00 0.00 80 1012.5
20260507054219 41 171 3.0 4.0 0.00 0.00 0.00 81 1012.6
20260507052419 40 172 2.0 4.0 0.00 0.00 0.00 81 1012.7
20260507051519 40 178 2.0 2.0 0.00 0.00 0.00 81 1012.7
20260507045719 39 135 2.0 4.0 0.00 0.00 0.00 82 1012.7
20260507044819 39 158 2.0 4.0 0.00 0.00 0.00 82 1012.5
20260507043019 40 148 3.0 6.0 0.00 0.00 0.00 82 1012.6
20260507042119 39 169 2.0 4.0 0.00 0.00 0.00 82 1012.5
20260507041219 39 171 2.0 2.0 0.00 0.00 0.00 83 1012.7
20260507035419 40 324 2.0 4.0 0.00 0.00 0.00 82 1012.7
20260507034520 40 113 1.0 2.0 0.00 0.00 0.00 81 1012.6
20260507033619 40 98 2.0 4.0 0.00 0.00 0.00 80 1012.7
20260507030919 40 158 3.0 4.0 0.00 0.00 0.00 80 1013.0
20260507030020 40 154 2.0 4.0 0.00 0.00 0.00 80 1012.9
20260507025119 41 154 3.0 4.0 0.00 0.00 0.00 79 1012.9
20260507024219 41 164 3.0 4.0 0.00 0.00 0.00 78 1012.7
20260507023320 41 158 3.0 4.0 0.00 0.00 0.00 77 1012.6
20260507022419 41 179 3.0 6.0 0.00 0.00 0.00 77 1013.0
20260507021519 41 161 3.0 4.0 0.00 0.00 0.00 78 1012.6
20260507020619 41 175 4.0 6.0 0.00 0.00 0.00 77 1012.9
20260507015719 41 247 4.0 4.0 0.00 0.00 0.00 77 1012.9
20260507014819 41 170 3.0 4.0 0.00 0.00 0.00 78 1012.8
20260507013919 41 172 4.0 6.0 0.00 0.00 0.00 77 1012.7
20260507013020 41 139 4.0 7.0 0.00 0.00 0.00 76 1013.0
20260507011219 42 154 5.0 6.0 0.00 0.00 0.00 76 1013.1
20260507005419 41 160 4.0 6.0 0.00 0.00 0.00 78 1013.1
20260507004519 41 161 4.0 4.0 0.00 0.00 0.00 78 1013.3
20260507002719 41 206 3.0 4.0 0.00 0.00 0.00 77 1013.4
20260507001819 41 154 2.0 4.0 0.00 0.00 0.00 76 1013.3
20260507000020 42 170 2.0 4.0 0.00 0.00 0.00 75 1013.6
20260506234219 41 133 1.0 2.0 0.00 0.00 0.00 75 1013.8
20260506232419 41 161 1.0 2.0 0.00 0.00 0.00 75 1013.6
20260506230619 41 155 3.0 6.0 0.00 0.00 0.00 75 1013.7
20260506225719 42 52 2.0 7.0 0.00 0.00 0.00 74 1013.7
20260506224819 41 178 2.0 4.0 0.00 0.00 0.00 75 1013.9
20260506223919 41 24 2.0 4.0 0.00 0.00 0.00 76 1013.7
20260506223019 41 122 1.0 2.0 0.00 0.00 0.00 76 1013.6